• In Romania
  • List of Countries
  • For 7 days
  • Water Temperature
  • Satellite Maps
  • Weather Map
  • Weather Widgets
  • user-avatar
    Login

    Hourly Weather Lubango

    Today, 24 August, Thursday

    Time Temperature Precipitation Wind Pressure Humidity
    00:00 +11°C° 0 mm 0 mps 609 mmHg 78%
    01:00 +11°C° 0 mm 0 mps 608 mmHg 78%
    02:00 +11°C° 0 mm 0 mps 608 mmHg 76%
    03:00 +11°C° 0 mm 0 mps 608 mmHg 74%
    04:00 +11°C° 0 mm 1 mps 607 mmHg 72%
    05:00 +12°C° 0 mm 1 mps 608 mmHg 67%
    06:00 +12°C° 0 mm 1 mps 608 mmHg 62%
    07:00 +13°C° 0 mm 1 mps 609 mmHg 57%
    08:00 +18°C° 0 mm 1 mps 610 mmHg 45%
    09:00 +21°C° 0 mm 1 mps 612 mmHg 33%
    10:00 +25°C° 0 mm 2 mps 613 mmHg 21%
    11:00 +27°C° 0 mm 2 mps 613 mmHg 18%
    12:00 +28°C° 0 mm 2 mps 613 mmHg 16%
    13:00 +30°C° 0 mm 2 mps 613 mmHg 13%
    14:00 +29°C° 0 mm 2 mps 613 mmHg 16%
    15:00 +28°C° 0 mm 3 mps 612 mmHg 19%
    16:00 +27°C° 0 mm 3 mps 611 mmHg 22%
    17:00 +24°C° 0 mm 3 mps 611 mmHg 32%
    18:00 +20°C° 0 mm 3 mps 610 mmHg 43%
    19:00 +17°C° 0 mm 2 mps 609 mmHg 53%
    20:00 +16°C° 0 mm 2 mps 609 mmHg 59%
    21:00 +15°C° 0 mm 1 mps 609 mmHg 64%
    22:00 +14°C° 0 mm 1 mps 609 mmHg 69%
    23:00 +14°C° 0 mm 1 mps 609 mmHg 69%

    Tomorrow, 25 August, Friday

    Time Temperature Precipitation Wind Pressure Humidity
    00:00 +13°C° 0 mm 1 mps 609 mmHg 68%
    01:00 +12°C° 0 mm 0 mps 608 mmHg 68%
    02:00 +13°C° 0 mm 1 mps 608 mmHg 67%
    03:00 +12°C° 0 mm 1 mps 608 mmHg 66%
    04:00 +12°C° 0 mm 1 mps 607 mmHg 64%
    05:00 +13°C° 0 mm 1 mps 608 mmHg 59%
    06:00 +13°C° 0 mm 1 mps 608 mmHg 54%
    07:00 +14°C° 0 mm 1 mps 609 mmHg 49%
    08:00 +18°C° 0 mm 2 mps 610 mmHg 38%
    09:00 +21°C° 0 mm 2 mps 612 mmHg 27%
    10:00 +26°C° 0 mm 3 mps 614 mmHg 16%
    11:00 +28°C° 0 mm 3 mps 613 mmHg 14%
    12:00 +29°C° 0 mm 2 mps 613 mmHg 12%
    13:00 +31°C° 0 mm 2 mps 613 mmHg 11%
    14:00 +30°C° 0 mm 3 mps 612 mmHg 12%
    15:00 +29°C° 0 mm 3 mps 611 mmHg 12%
    16:00 +29°C° 0 mm 3 mps 611 mmHg 13%
    17:00 +25°C° 0 mm 3 mps 610 mmHg 20%
    18:00 +21°C° 0 mm 2 mps 609 mmHg 26%
    19:00 +18°C° 0 mm 2 mps 608 mmHg 33%
    20:00 +18°C° 0 mm 1 mps 608 mmHg 36%
    21:00 +16°C° 0 mm 1 mps 608 mmHg 38%
    22:00 +15°C° 0 mm 1 mps 609 mmHg 41%
    23:00 +15°C° 0 mm 1 mps 608 mmHg 40%

    Day after tomorrow, 26 August, Saturday

    Time Temperature Precipitation Wind Pressure Humidity
    00:00 +15°C° 0 mm 1 mps 608 mmHg 39%
    01:00 +14°C° 0 mm 1 mps 608 mmHg 38%
    02:00 +14°C° 0 mm 1 mps 608 mmHg 37%
    03:00 +14°C° 0 mm 1 mps 607 mmHg 36%
    04:00 +14°C° 0 mm 1 mps 607 mmHg 35%
    05:00 +14°C° 0 mm 1 mps 608 mmHg 33%
    06:00 +14°C° 0 mm 1 mps 608 mmHg 31%
    07:00 +15°C° 0 mm 2 mps 609 mmHg 29%
    08:00 +19°C° 0 mm 2 mps 610 mmHg 23%
    09:00 +23°C° 0 mm 2 mps 612 mmHg 16%
    10:00 +27°C° 0 mm 3 mps 614 mmHg 9%
    11:00 +29°C° 0 mm 2 mps 614 mmHg 9%
    12:00 +30°C° 0 mm 2 mps 613 mmHg 8%
    13:00 +32°C° 0 mm 2 mps 613 mmHg 7%
    14:00 +31°C° 0 mm 2 mps 612 mmHg 8%
    15:00 +30°C° 0 mm 3 mps 612 mmHg 9%
    16:00 +29°C° 0 mm 3 mps 611 mmHg 10%
    17:00 +26°C° 0 mm 3 mps 610 mmHg 17%
    18:00 +21°C° 0 mm 2 mps 609 mmHg 24%
    19:00 +18°C° 0 mm 2 mps 608 mmHg 30%
    20:00 +18°C° 0 mm 1 mps 608 mmHg 33%
    21:00 +16°C° 0 mm 1 mps 608 mmHg 36%
    22:00 +15°C° 0 mm 1 mps 608 mmHg 39%
    23:00 +15°C° 0 mm 1 mps 608 mmHg 38%

    27 August, Sunday

    Time Temperature Precipitation Wind Pressure Humidity
    00:00 +14°C° 0 mm 1 mps 607 mmHg 36%
    01:00 +14°C° 0 mm 1 mps 607 mmHg 35%
    02:00 +14°C° 0 mm 1 mps 607 mmHg 34%
    03:00 +13°C° 0 mm 1 mps 607 mmHg 34%
    04:00 +13°C° 0 mm 1 mps 606 mmHg 34%
    05:00 +13°C° 0 mm 1 mps 607 mmHg 32%
    06:00 +14°C° 0 mm 1 mps 608 mmHg 29%
    07:00 +14°C° 0 mm 1 mps 609 mmHg 27%
    08:00 +18°C° 0 mm 2 mps 610 mmHg 22%
    09:00 +23°C° 0 mm 2 mps 612 mmHg 17%
    10:00 +27°C° 0 mm 3 mps 613 mmHg 12%
    11:00 +29°C° 0 mm 3 mps 613 mmHg 10%
    12:00 +30°C° 0 mm 3 mps 613 mmHg 9%
    13:00 +33°C° 0 mm 3 mps 613 mmHg 8%
    14:00 +31°C° 0 mm 3 mps 612 mmHg 9%
    15:00 +30°C° 0 mm 3 mps 611 mmHg 11%
    16:00 +29°C° 0 mm 3 mps 611 mmHg 12%
    17:00 +26°C° 0 mm 3 mps 610 mmHg 21%
    18:00 +21°C° 0 mm 2 mps 609 mmHg 30%
    19:00 +17°C° 0 mm 2 mps 608 mmHg 39%
    20:00 +16°C° 0 mm 1 mps 608 mmHg 44%
    21:00 +15°C° 0 mm 1 mps 608 mmHg 49%
    22:00 +14°C° 0 mm 1 mps 608 mmHg 54%
    23:00 +14°C° 0 mm 1 mps 608 mmHg 55%

    28 August, Monday

    Time Temperature Precipitation Wind Pressure Humidity
    00:00 +13°C° 0 mm 1 mps 608 mmHg 56%
    01:00 +13°C° 0 mm 1 mps 607 mmHg 57%
    02:00 +12°C° 0 mm 1 mps 607 mmHg 58%
    03:00 +12°C° 0 mm 1 mps 607 mmHg 58%
    04:00 +12°C° 0 mm 1 mps 607 mmHg 58%
    05:00 +12°C° 0 mm 1 mps 607 mmHg 54%
    06:00 +13°C° 0 mm 1 mps 608 mmHg 50%
    07:00 +14°C° 0 mm 1 mps 609 mmHg 46%
    08:00 +17°C° 0 mm 2 mps 610 mmHg 38%
    09:00 +21°C° 0 mm 2 mps 612 mmHg 29%
    10:00 +25°C° 0 mm 3 mps 613 mmHg 21%
    11:00 +27°C° 0 mm 3 mps 613 mmHg 19%
    12:00 +28°C° 0 mm 3 mps 612 mmHg 17%
    13:00 +30°C° 0 mm 3 mps 612 mmHg 15%
    14:00 +29°C° 0 mm 3 mps 612 mmHg 17%
    15:00 +28°C° 0 mm 3 mps 611 mmHg 20%
    16:00 +27°C° 0 mm 3 mps 611 mmHg 22%
    17:00 +24°C° 0 mm 3 mps 610 mmHg 34%
    18:00 +20°C° 0 mm 2 mps 609 mmHg 45%
    19:00 +16°C° 0 mm 2 mps 608 mmHg 56%
    20:00 +15°C° 0 mm 2 mps 608 mmHg 61%
    21:00 +14°C° 0 mm 1 mps 609 mmHg 66%
    22:00 +13°C° 0 mm 1 mps 609 mmHg 71%
    23:00 +13°C° 0 mm 1 mps 608 mmHg 73%

    29 August, Tuesday

    Time Temperature Precipitation Wind Pressure Humidity
    00:00 +12°C° 0 mm 1 mps 608 mmHg 75%
    01:00 +12°C° 0 mm 1 mps 608 mmHg 78%
    02:00 +12°C° 0 mm 1 mps 608 mmHg 78%
    03:00 +10°C° 0 mm 0 mps 608 mmHg 78%
    04:00 +10°C° 0 mm 0 mps 607 mmHg 78%
    05:00 +11°C° 0 mm 0 mps 608 mmHg 74%
    06:00 +11°C° 0 mm 0 mps 609 mmHg 69%
    07:00 +12°C° 0 mm 0 mps 609 mmHg 64%
    08:00 +16°C° 0 mm 1 mps 610 mmHg 52%
    09:00 +20°C° 0 mm 2 mps 612 mmHg 40%
    10:00 +24°C° 0 mm 2 mps 613 mmHg 27%
    11:00 +25°C° 0 mm 2 mps 613 mmHg 25%
    12:00 +27°C° 0 mm 3 mps 612 mmHg 22%
    13:00 +28°C° 0 mm 3 mps 612 mmHg 20%
    14:00 +28°C° 0 mm 3 mps 612 mmHg 22%
    15:00 +27°C° 0 mm 3 mps 611 mmHg 24%
    16:00 +26°C° 0 mm 3 mps 610 mmHg 26%
    17:00 +22°C° 0 mm 3 mps 610 mmHg 36%
    18:00 +19°C° 0 mm 3 mps 609 mmHg 46%
    19:00 +17°C° 0 mm 2 mps 608 mmHg 56%
    20:00 +15°C° 0 mm 2 mps 608 mmHg 61%
    21:00 +14°C° 0 mm 1 mps 608 mmHg 66%
    22:00 +13°C° 0 mm 1 mps 608 mmHg 71%
    23:00 +13°C° 0 mm 1 mps 608 mmHg 71%
    Show more